Overton, Nevada Weather observations

Data are for observation ending at time listed.
 Day   Time    Ave.   Ave.  Ave.  Vector   Max.   Stn.    Total    Solar   Ave.  
  of    of     Air    Rel.  Wind   Wind    Wind   Baro.  Precip.   Rad.    Soil  
Year   Day     Temp.  Hum.  Speed  Dir.    Gust   Pres.                    Temp. 
2026   (PST)    F      %     mph   deg.    mph     mb.     in.     W/m2     F   
------------------------------------------------------------------------------
 128   15:20  101.7     6    7.2   171     15.9   962.8    0.00     371    103.4
 128   15:30  101.1     7    7.2   120     13.2   962.7    0.00     555    102.8
 128   15:40  101.4     6    5.2   152     11.2   962.6    0.00     360    102.7
 128   15:50  101.6     6    5.2   131     14.2   962.5    0.00     478    102.2
 128   16:00  101.2     7    5.3   124     13.1   962.4    0.00     449    101.8
 128   16:10  101.3     7    5.2   117     11.6   962.3    0.00     258    101.3
 128   16:20  101.4     7    4.8   125      9.8   962.2    0.00     387    101.0
 128   16:30  100.9     7    5.7   119     12.7   962.1    0.00     353    100.7
 128   16:40  100.7     7    5.1   102      9.8   962.0    0.00     317    100.3
 128   16:50  100.7     7    3.8   112     10.4   961.8    0.00     163    100.0
 128   17:00  100.5     7    4.0   100      8.8   961.8    0.00     248    99.7
 128   17:10  100.5     7    3.6   113      8.6   961.6    0.00     216    99.4
 128   17:20  100.3     8    3.6   109      8.2   961.5    0.00     184    99.0
 128   17:30   99.5     8    3.3    97      6.6   961.4    0.00     153    98.5
 128   17:40   99.5     8    3.4   113      6.9   961.2    0.00     123    98.0
 128   17:50   98.8     8    3.2   108      7.0   961.1    0.00      47    97.5
 128   18:00   98.1     8    2.7   116      6.1   961.1    0.00      32    96.8
 128   18:10   97.0     9    2.9   119      7.2   960.9    0.00      21    96.2
 128   18:20   95.9    10    2.3   128      6.8   960.8    0.00      15    95.4
 128   18:30   95.3     9    2.2   144      6.0   960.7    0.00       9    94.7
 128   18:40   93.8    10    2.6   161      4.5   960.6    0.00       4    94.0
 128   18:50   92.6    10    2.6   154      4.9   960.5    0.00       1    93.3
 128   19:00   92.9    10    1.8   139      3.3   960.4    0.00       0    92.7
 128   19:10   92.0    11    1.6   138      3.1   960.4    0.00       0    92.1
 128   19:20   90.6    11    1.9   160      4.6   960.4    0.00       0    91.6
 128   19:30   91.0    10    2.3   126      4.2   960.4    0.00       0    91.5
 128   19:40   89.8    11    2.6   106      4.5   960.4    0.00       0    90.9
 128   19:50   88.6    11    2.9   114      5.2   960.3    0.00       0    90.3
 128   20:00   88.6    11    2.5   120      4.8   960.3    0.00       0    90.0
 128   20:10   88.3    11    2.7   121      4.8   960.4    0.00       0    89.6
 128   20:20   88.0    11    3.0   123      5.4   960.4    0.00       0    89.2
 128   20:30   87.3    12    1.8   178      4.0   960.5    0.00       0    88.6
 128   20:40   84.3    13    1.8    32      4.8   960.7    0.00       0    87.3
 128   20:50   83.7    13    2.2    29      5.3   960.7    0.00       0    87.0
 128   21:00   82.2    14    2.1    98      3.9   960.7    0.00       0    86.4
 128   21:10   83.5    13    2.0   132      3.7   960.6    0.00       0    86.5
 128   21:20   83.5    13    0.6   235      2.6   960.6    0.00       0    85.6
 128   21:30   81.6    14    0.1   216      1.1   960.6    0.00       0    85.1
 128   21:40   79.0    17    1.3   322      3.1   960.5    0.00       0    83.2
 128   21:50   74.6    21    1.1   334      2.2   960.4    0.00       0    82.2
 128   22:00   73.8    21    2.9   322      5.8   960.4    0.00       0    81.9
 128   22:10   73.5    21    1.3   315      3.8   960.4    0.00       0    81.3
 128   22:20   73.6    20    2.0   318      3.9   960.4    0.00       0    80.8
 128   22:30   73.0    21    1.4   322      2.8   960.4    0.00       0    80.6
 128   22:40   74.1    19    2.4   305      3.6   960.4    0.00       0    80.7
 128   22:50   73.4    20    1.9   306      3.0   960.5    0.00       0    80.0
 128   23:00   72.6    21    0.8   295      2.3   960.4    0.00       0    79.6
 128   23:10   72.1    22    1.1   299      2.3   960.4    0.00       0    79.0
 128   23:20   71.5    22    0.4   305      1.7   960.3    0.00       0    78.7
 128   23:30   69.9    24    2.1   333      3.5   960.3    0.00       0    77.8
 128   23:40   69.0    24    2.2   323      3.1   960.3    0.00       0    77.3
 128   23:50   68.4    25    2.0   329      3.9   960.2    0.00       0    76.6
 129    0:00   67.1    26    2.9   327      5.5   960.3    0.00       0    76.2
 129    0:10   69.2    22    1.9   293      3.1   960.2    0.00       0    76.9
 129    0:20   70.6    20    1.6   245      2.6   960.1    0.00       0    77.3
 129    0:30   70.1    22    0.6   328      3.1   960.2    0.00       0    75.9
 129    0:40   66.1    26    3.6   321      5.3   960.2    0.00       0    75.0
 129    0:50   65.5    25    2.2   304      4.2   960.3    0.00       0    74.4
 129    1:00   65.6    27    0.6   339      1.7   960.3    0.00       0    74.2
 129    1:10   66.6    25    0.1   274      1.2   960.2    0.00       0    75.0
 129    1:20   67.6    24    0.8   308      2.3   960.3    0.00       0    74.3
 129    1:30   64.4    29    2.6   324      4.8   960.4    0.00       0    73.3
 129    1:40   64.2    28    1.0   299      2.8   960.4    0.00       0    73.0
 129    1:50   65.0    26    0.9   315      2.9   960.4    0.00       0    73.3
 129    2:00   65.7    25    0.4   291      2.3   960.4    0.00       0    73.4
 129    2:10   66.3    25    0.1   266      1.5   960.3    0.00       0    73.1
 129    2:20   63.5    29    2.6   322      4.0   960.4    0.00       0    72.1
 129    2:30   62.9    29    2.1   325      3.5   960.5    0.00       0    71.8
 129    2:40   63.1    28    2.3   335      3.7   960.6    0.00       0    71.6
 129    2:50   63.1    28    1.3   334      3.1   960.7    0.00       0    71.7
 129    3:00   63.3    27    2.0   322      3.1   960.7    0.00       0    71.3
 129    3:10   62.2    28    1.7   334      3.2   960.7    0.00       0    70.6
 129    3:20   63.1    27    1.3   352      2.3   960.7    0.00       0    71.0
 129    3:30   63.4    27    1.8   327      3.9   960.7    0.00       0    71.2
 129    3:40   62.8    27    2.6   325      4.7   960.7    0.00       0    70.3
 129    3:50   62.9    25    1.6   305      2.9   960.7    0.00       0    70.4
 129    4:00   62.1    27    1.0   317      3.4   960.9    0.00       0    70.2
 129    4:10   64.6    23    1.8   291      3.5   960.9    0.00       0    71.1
 129    4:20   65.6    22    2.4   296      4.7   961.1    0.00       0    70.9
 129    4:30   64.8    22    0.8   287      3.9   961.3    0.00       1    70.7
 129    4:40   64.9    22    0.9   338      2.9   961.6    0.00       4    70.3
 129    4:50   63.7    23    1.2   275      3.7   961.7    0.00      10    70.7
 129    5:00   66.1    20    0.5   257      1.9   961.8    0.00      30    72.2
 129    5:10   65.7    22    0.8   314      2.2   962.0    0.00      61    73.3
 129    5:20   64.3    25    2.1   317      3.5   962.1    0.00      89    75.5
 129    5:30   66.0    23    1.0   323      2.0   962.4    0.00     117    77.2
 129    5:40   65.9    26    3.4   328      6.3   962.6    0.00     148    77.9
 129    5:50   68.4    20    3.3   308      5.0   962.8    0.00     180    80.8
 129    6:00   70.8    20    2.1   325      3.7   963.2    0.00     214    82.0
 129    6:10   71.1    20    2.1   313      4.2   963.5    0.00     249    83.1
 129    6:20   72.6    17    3.0   313      4.1   963.7    0.00     284    83.5
 129    6:30   74.9    20    1.7     8      2.6   963.9    0.00     319    84.2
 129    6:40   77.6    17    0.2    13      1.3   964.1    0.00     356    87.4
 129    6:50   79.0    16    0.4   355      2.1   964.2    0.00     392    89.0
 129    7:00   79.6    16    2.7    13      4.3   964.4    0.00     427    90.0
 129    7:10   79.9    14    2.1   347      4.1   964.6    0.00     462    92.0
 129    7:20   82.3    12    1.3   346      4.0   964.8    0.00     498    95.0
 129    7:30   83.1    11    2.5   354      4.7   964.9    0.00     532    96.2
 129    7:40   83.9    10    3.3   352      5.1   965.1    0.00     565    97.4
 129    7:50   84.7    10    2.2   354      4.5   965.1    0.00     597    100.0
 129    8:00   85.8     9    2.0     1      3.6   965.2    0.00     628    102.1
 129    8:10   87.1     9    2.3    17      4.1   965.3    0.00     658    104.0
 129    8:20   87.5     9    1.9     6      3.9   965.4    0.00     688    105.5
 129    8:30   87.5     8    2.1   345      5.2   965.5    0.00     718    106.4
 129    8:40   88.6     8    1.8   352      4.2   965.5    0.00     746    107.9
 129    8:50   89.9     8    1.0    20      2.6   965.6    0.00     772    109.3
 129    9:00   90.6     8    2.1   257      4.6   965.7    0.00     798    111.6
 129    9:10   90.4     8    1.8   204      5.0   965.7    0.00     821    114.6
 129    9:20   92.2     8    0.7   254      4.1   965.8    0.00     844    114.4
 129    9:30   92.6     8    2.5   247      5.5   965.9    0.00     864    116.1
 129    9:40   92.4     8    2.0   205      5.2   965.9    0.00     885    117.6
 129    9:50   92.5     8    3.1   257      5.4   965.9    0.00     903    117.7
 129   10:00   94.3     8    1.5   190      5.5   965.9    0.00     919    118.0
 129   10:10   94.7     7    1.4   191      4.2   965.9    0.00     935    118.4
 129   10:20   95.6     8    1.8   124      4.5   965.9    0.00     947    117.7
 129   10:30   96.5     7    2.4   107      5.2   965.8    0.00     958    116.5
 129   10:40   96.5     7    1.9   115      4.5   965.6    0.00     969    116.0
 129   10:50   96.4     7    3.6   247      6.6   965.6    0.00     928    116.2
 129   11:00   97.4     7    1.6   151      4.7   965.5    0.00     982    117.6
 129   11:10   98.2     7    2.6   132      6.6   965.3    0.00     986    117.4
 129   11:20   98.2     7    2.2   164      4.6   965.3    0.00     989    118.8
 129   11:30   98.8     7    3.4   315      9.6   965.2    0.00     990    115.6
 129   11:40   98.5     7    3.4     8      9.9   965.1    0.00     989    115.3
 129   11:50   99.4     7    4.7   360      7.8   965.0    0.00     987    114.6
 129   12:00  100.3     6    2.3    20      5.3   964.9    0.00     984    115.3
 129   12:10  100.4     6    2.5    87      5.9   964.8    0.00     976    116.1
 129   12:20  100.9     6    2.0   128      5.3   964.7    0.00     969    116.3
 129   12:30  101.0     6    2.9    80      6.1   964.6    0.00     958    114.2
 129   12:40  101.2     6    1.9    31      5.3   964.6    0.00     947    112.0
 129   12:50  101.2     6    2.6    11      5.0   964.5    0.00     936    110.4
 129   13:00  101.9     6    3.7   358      9.4   964.4    0.00     921    109.2
 129   13:10  101.9     6    4.8   338     10.2   964.2    0.00     907    108.2
 129   13:20  101.3     6    5.1   331     11.5   964.1    0.00     892    107.4
 129   13:30  101.3     6    3.0    37      7.6   964.0    0.00     872    106.8
 129   13:40  102.3     6    4.7     6      8.3   963.9    0.00     853    106.3
 129   13:50  102.3     6    4.6   318      8.8   963.8    0.00     830    106.1
 129   14:00  102.3     6    5.4   324     10.7   963.7    0.00     808    105.8
 129   14:10  101.6     6    3.8   296      7.3   963.5    0.00     784    105.7
 129   14:20  101.8     6    4.8   214      9.5   963.3    0.00     758    105.9
 129   14:30  102.7     6    2.9   307      5.5   963.1    0.00     730    105.2
 129   14:40  103.0     6    8.5   355     16.6   963.0    0.00     704    105.0
 129   14:50  102.8     6    5.7    38      9.1   962.9    0.00     662    104.5
 129   15:00  103.1     6    5.3   358      8.8   962.7    0.00     132    104.4
 129   15:10  102.7     6    4.3    63      7.7   962.7    0.00     387    104.0

Return to Overton, Nevada graphs page.


Western Regional Climate Center,wrcc@dri.edu